Location: Luz Observatory
(34.5000°N, 117.2833°W)
Time: 15:26:02
(UTC-08:00)

Daily predictions for brighter satellites

Satellite Brightness Start Highest point End
(mag) Time Altitude Azimuth Time Altitude Azimuth Time Altitude Azimuth
CZ-2C R/B 4.3 17:00:13 10° NNE 17:04:41 40° E 17:09:09 10° S
MSX 4.5 16:59:53 10° S 17:05:35 64° WSW 17:11:20 10° NNW
Cosmos 1025 Rocket 4.5 17:03:06 10° SE 17:06:02 18° E 17:08:57 10° NE
CZ-3A R/B 4.2 16:56:57 10° NW 17:07:28 66° SW 17:13:07 10° SSE
Ariane Rocket 3.0 17:05:29 10° SSE 17:10:26 60° ENE 17:15:25 10° N
ERS-2 3.9 17:09:29 10° E 17:11:03 12° ENE 17:12:37 10° NE
Meteor 1-19 Rocket 4.5 17:08:24 10° SSW 17:14:03 78° W 17:19:52 10° N
Cosmos 2084 3.9 17:10:03 10° S 17:14:06 43° ESE 17:17:57 10° NE
Cosmos 1536 Rocket 3.5 17:11:58 10° S 17:16:19 75° E 17:20:38 10° N
SMAP 3.0 17:11:52 10° SSE 17:16:28 68° ENE 17:21:06 10° N
Cosmos 2082 3.8 17:12:37 10° N 17:18:06 51° ENE 17:23:33 10° SE
Okean 2 4.3 17:18:53 10° SSE 17:22:20 27° E 17:25:49 10° NNE
Cosmos 1125 Rocket 3.7 17:18:29 10° SSW 17:23:47 77° WNW 17:29:05 10° NNE
CORIOLIS 4.1 17:20:01 10° SSE 17:25:24 71° ENE 17:30:47 10° N
Cosmos 389 Rocket 4.4 17:23:02 10° NNW 17:26:11 33° W 17:29:18 10° SSW
Cosmos 1269 Rocket 4.3 17:22:49 10° N 17:27:55 45° ENE 17:32:57 10° SE
Cosmos 2227 Rocket 2.2 17:23:20 10° NNW 17:29:01 83° ENE 17:34:40 10° SSE
Cosmos 1271 Rocket 3.9 17:26:34 10° NNW 17:30:15 46° W 17:33:58 10° SSW
ALOS 3.2 17:27:56 10° SE 17:31:46 26° ENE 17:35:37 10° NNE
USA 238 DEB 3.8 17:25:22 10° NNW 17:32:32 87° ENE 17:39:46 10° SSE
USA 238 3.8 17:25:29 10° NNW 17:32:38 87° ENE 17:39:52 10° SSE
Cosmos 1241 Rocket 4.5 17:26:43 10° SSW 17:33:06 84° ESE 17:39:26 10° NNE
MTI 4.1 17:30:07 10° NNE 17:33:15 45° E 17:36:22 10° S
SKYMED 2 3.8 17:30:38 10° NNE 17:34:51 49° E 17:39:03 10° S
Cosmos 1048 Rocket 4.0 17:30:20 10° NNW 17:35:43 69° ENE 17:41:01 10° SSE
Cosmos 1980 Rocket 2.4 17:36:07 10° S 17:41:33 50° ESE 17:46:52 11° NNE
Meteor 2-9 Rocket 4.2 17:37:04 10° N 17:42:32 83° W 17:47:51 10° S
Cosmos 1484 Rocket 4.3 17:43:16 10° S 17:47:03 41° W 17:50:51 10° NNW
Meteor 1-23 Rocket 4.4 17:44:53 10° S 17:50:39 82° W 17:56:23 10° N
MOS 1 4.3 17:46:51 10° SSE 17:52:24 58° ENE 17:57:58 10° N
CZ-4 R/B 4.3 17:48:39 10° SSE 17:52:47 82° ENE 17:56:56 10° N
Cosmos 2297 Rocket 2.5 17:49:45 10° NNW 17:55:23 69° WSW 18:00:59 10° S
EP 2 4.1 17:52:56 10° SSW 17:55:42 86° ESE 17:56:34 38° NNE
NOSS 3-2 (A) 4.0 17:53:00 10° NNW 18:00:45 78° ENE 18:09:04 10° SE
Cosmos 1892 Rocket 4.3 17:58:15 10° SSE 18:02:10 31° E 18:02:47 30° ENE
YAOGAN 1 2.8 17:58:05 10° S 18:02:22 71° WSW 18:06:43 10° NNW
GOES 2 Rocket 4.4 17:58:48 10° WSW 18:02:42 34° S 18:06:27 14° SE
SL-24 R/B - RUBIN 2 4.5 17:58:19 10° SSW 18:04:39 77° WNW 18:09:29 15° NNE
Lacrosse 5 rocket 2.7 18:01:47 10° S 18:05:03 23° ESE 18:05:08 23° ESE
Cosmos 2266 Rocket 4.5 17:59:44 10° NNW 18:05:45 62° W 18:11:51 10° S
OAO 1 Rocket 4.4 18:00:51 10° W 18:06:13 86° N 18:08:59 29° E
NOAA 12 4.0 18:03:08 10° SSE 18:08:19 62° ENE 18:13:31 10° N
NOSS 3-2 (C) 4.0 18:01:28 10° NNW 18:09:10 68° ENE 18:17:26 10° SE
Atlas Centaur 2 3.6 18:04:34 10° W 18:09:14 27° SSW 18:13:05 10° SE
DELTA 2 R/B (1) 3.7 18:04:39 10° WNW 18:10:10 60° NNE 18:12:35 33° ENE
Fregat R/B Cluster 11 4.1 18:05:36 10° SSW 18:10:30 46° ESE 18:11:07 41° E
ISS -1.1 18:08:11 10° W 18:10:41 20° SW 18:13:11 10° S
ATLAS 3B R/B 3.6 18:06:05 10° NW 18:12:22 48° WSW 18:18:34 10° S
RESURS DK-1 2.2 18:14:09 10° SSW 18:18:16 86° ESE 18:19:43 39° NNE
USA 215 3.5 18:12:20 10° SE 18:18:51 71° SW 18:25:23 10° NW
SJ 16-02 4.0 18:18:53 10° WSW 18:21:43 17° WNW 18:24:36 10° NNW
COSMO-SKYMED 1 3.7 18:18:45 10° N 18:22:51 42° WNW 18:26:56 10° SW
FENGYUN 3A 3.6 18:18:59 10° SSE 18:24:22 90° WSW 18:29:46 10° NNW
SL-16 R/B 2.7 18:19:17 10° S 18:24:24 36° ESE 18:24:29 36° ESE
S3M 3.9 18:19:04 10° SSE 18:25:01 56° E 18:28:56 22° NNE
Cosmos 2322 Rocket 2.6 18:23:33 10° S 18:28:30 38° ESE 18:28:30 38° ESE
Hubble Space Telescope 3.5 18:27:44 10° SW 18:29:55 14° SSW 18:32:05 10° S
Shenzhou-11 Module 3.6 18:29:09 10° SW 18:30:56 30° SSW 18:30:56 30° SSW
CZ-4 R/B 4.4 18:33:55 10° SW 18:36:20 16° W 18:38:47 10° NW
H-2A R/B 3.0 18:36:40 10° SW 18:38:39 31° S 18:38:39 31° S
Cosmos 2344 3.7 18:32:09 10° S 18:39:34 50° ESE 18:41:25 42° ENE
NOSS 2-2 (D) 3.8 18:36:43 10° SW 18:40:31 55° WNW 18:41:00 51° NNW
ERS-2 3.8 18:41:02 10° SSW 18:44:21 33° W 18:47:42 10° NNW
SPOT 3 Rocket 4.3 18:42:50 10° S 18:47:52 51° W 18:52:53 10° NNW
CENTAUR R/B 3.1 18:44:18 10° NNW 18:52:14 57° NE 18:54:02 49° E
Cosmos 1553 Rocket 4.3 18:51:30 10° SSW 18:57:52 68° W 19:03:57 11° N
SL-08 R/B 4.5 18:55:47 10° N 19:02:02 79° W 19:08:11 10° S
Thor Agena Rocket 3.6 19:01:49 73° NNW 19:02:11 77° WNW 19:07:27 10° SSW
Cosmos 2251 Rocket 3.9 18:59:33 10° NNW 19:03:44 56° NW 19:03:44 56° NW
ALOS 4.4 19:05:15 10° SSW 19:09:05 25° W 19:12:58 10° NW
Cosmos 1745 Rocket 4.0 19:09:11 10° N 19:15:24 77° W 19:21:40 10° S
Gblst 52 Del rocket 4.5 19:12:57 10° NW 19:18:15 72° W 19:18:15 72° W
Cosmos 1980 Rocket 4.4 19:21:40 10° WSW 19:25:48 20° WNW 19:28:41 14° NNW
Lacrosse 5 rocket 4.4 19:40:11 10° WSW 19:40:52 14° WSW 19:40:52 14° WSW
SL-16 R/B 4.4 20:03:48 10° WSW 20:06:25 21° W 20:06:25 21° W
